Regional Weather Roundup
Issued by NWS

Home | Current Version | Previous Version | Text Only | Print | Product List | Glossary On
Versions: 1 2 3 4 5 6 7 8 9 10 11 12 13 14 15 16 17 18 19 20 21 22 23 24 25 26 27 28 29 30 31 32 33 34 35 36 37 38 39 40 41 42 43 44 45 46 47 48 49 50
000
ASUS45 KABQ 261810
RWRNM
NEW MEXICO REGIONAL WEATHER ROUNDUP
NATIONAL WEATHER SERVICE ALBUQUERQUE NM
1100 AM MST SUN FEB 26 2017

NOTE: "FAIR" MEANS FEW OR NO CLOUDS BELOW 12,000 FEET AGL WITH NO
       SIGNIFICANT WEATHER OR OBSTRUCTIONS TO VISION.

      THIS PRODUCT IS RELEASED AS TWO VERSIONS.  ONE VERSION NEAR
      THE TOP OF THE HOUR CONTAINING PRELIMINARY DATA FROM ALBUQUERQUE
      AND OTHER STATIONS.  A FINAL VERSION WITH ADDITIONAL DATA IS
      ISSUED ABOUT 10 MINUTES AFTER THE HOUR.

NMZ501-503-504-510>518-261900-
NORTHWEST PLATEAU/NORTHCENTRAL MOUNTAINS

CITY           SKY/WX    TMP DP  RH WIND       PRES   REMARKS
FARMINGTON     FAIR      39  13  34 SW8       29.94S WCI  33
6HR MIN TEMP:  19; 6HR MAX TEMP:  39;

LOS ALAMOS     CLOUDY    34   9  35 W10G16    29.92R WCI  26
SANTA FE       FAIR      40  16  37 W14G21    29.92S WCI  32
6HR MIN TEMP:  27; 6HR MAX TEMP:  41;

TAOS           FAIR      34   5  29 W12       29.89F WCI  25
ANGEL FIRE     PTSUNNY   27   9  46 W18G28    29.87S WCI  14

$$
NMZ402-403-502-505>509-261900-
WESTCENTRAL MOUNTAINS/SOUTHWEST MOUNTAINS

CITY           SKY/WX    TMP DP  RH WIND       PRES   REMARKS
GALLUP         CLOUDY    36  19  50 W10       29.96S WCI  28
6HR MIN TEMP:  27; 6HR MAX TEMP:  36; 6HR PCP: TRACE;

GRANTS         CLOUDY    38  18  43 W9G20     29.96S WCI  32
SILVER CITY    CLOUDY    52  14  21 SW16G28   29.96R

$$
NMZ407-409-411-412-261900-
SOUTHERN DESERTS

CITY           SKY/WX    TMP DP  RH WIND       PRES   REMARKS
DEMING         FAIR      58  11  15 SW15      29.94F
6HR MIN TEMP:  36; 6HR MAX TEMP:  59;

LAS CRUCES     CLOUDY    56   7  14 SW13      29.97F
HOLLOMAN AFB   CLOUDY    57   6  13 S5        29.98S
ALAMOGORDO     CLOUDY    54  10  17 S10       29.96S
T OR C         CLOUDY    51   8  17 E3        29.94S
6HR MIN TEMP:  34; 6HR MAX TEMP:  51;


$$
NMZ519>523-261900-
CENTRAL VALLEYS/CENTRAL HIGHLANDS

CITY           SKY/WX    TMP DP  RH WIND       PRES   REMARKS
ALBUQUERQUE    PTSUNNY   41  19  41 W5        29.97F
6HR MIN TEMP:  34; 6HR MAX TEMP:  41;

DOUBLE EAGLE   PTSUNNY   39  21  48 SE10      29.96F WCI  32
MORIARTY ARPT  FAIR      42  19  38 W15G23    29.95F
6HR MIN TEMP:  33; 6HR MAX TEMP:  42;

CLINES CORNERS FAIR      38  16  40 W25G32    29.92R WCI  27
6HR MIN TEMP:  27; 6HR MAX TEMP:  38;

BELEN          CLOUDY    42  17  36 NW5       29.97F
6HR MIN TEMP:  29; 6HR MAX TEMP:  42;

SOCORRO        CLOUDY    44  15  31 N9        29.96F
6HR MIN TEMP:  38; 6HR MAX TEMP:  44;


$$
NMZ524>526-539-540-261900-
SOUTHCENTRAL MOUNTAINS

CITY           SKY/WX    TMP DP  RH WIND       PRES   REMARKS
RUIDOSO        PTSUNNY   45   9  23 NW21G32   29.95S

$$
NMZ527>531-261900-
NORTHEAST HIGHLANDS/NORTHEAST PLAINS

CITY           SKY/WX    TMP DP  RH WIND       PRES   REMARKS
LAS VEGAS      FAIR      41  11  29 S7        29.86S
6HR MIN TEMP:  22; 6HR MAX TEMP:  41;

RATON          FAIR      44   1  16 W17G28    29.81F
6HR MIN TEMP:  12; 6HR MAX TEMP:  45;

CLAYTON        FAIR      48  12  23 S10       29.85F
6HR MIN TEMP:  24; 6HR MAX TEMP:  48;


$$
NMZ532>537-261900-
EASTCENTRAL PLAINS

CITY           SKY/WX    TMP DP  RH WIND       PRES   REMARKS
TUCUMCARI      CLOUDY    53  14  21 NW12      29.88F
6HR MIN TEMP:  28; 6HR MAX TEMP:  53;

CANNON AFB     PTSUNNY   55  15  20 NW23G35   29.89S
6HR MIN TEMP:  35; 6HR MAX TEMP:  55;

CLOVIS AIRPORT FAIR      55  19  24 NW24G32   29.90S

$$
NMZ028-029-538-261900-
SOUTHEAST PLAINS

CITY           SKY/WX    TMP DP  RH WIND       PRES   REMARKS
ROSWELL        FAIR      59   8  13 NE12        N/A
6HR MIN TEMP:  26; 6HR MAX TEMP:  59;

ARTESIA        FAIR      59  19  21 NE14      29.90F
CARLSBAD       FAIR      67   8  10 W15       29.90S
6HR MIN TEMP:  33; 6HR MAX TEMP:  68;

HOBBS          SUNNY     64   9  11 W9G17     29.92F


$$




USA.gov is the U.S. government's official web portal to all federal, state and local government web resources and services.